Tracking 31027 objects as of 19-Jul-2025
HD Live streaming from Space Station
objects crossing your sky now

STARLINK-2443

Track STARLINK-2443 now!
10-day predictions
STARLINK-2443 is classified as:


NORAD ID: 48107
Int'l Code: 2021-027R
Perigee: 553.4 km
Apogee: 555.3 km
Inclination: 53.1 °
Period: 95.6 minutes
Semi major axis: 6925 km
RCS: Unknown
Launch date: April 7, 2021
Source: United States (US)
Launch site: AIR FORCE EASTERN TEST RANGE (AFETR)
Your satellite tracking list
NOAA 16 DEB
Track 1 satellite(s)




NASA's NSSDC Master Catalog

Two Line Element Set (TLE):
1 48107U 21027R   25199.20318870 -.00000417  00000-0 -90944-5 0  9992
2 48107  53.0544 124.2700 0001413  86.9922 273.1229 15.06394763236959
Source of the keplerian elements: AFSPC